OCN6JR EDDM-LEPA

Flight info

Callsign OCN6JR
Flight time 1h 59m
Altitude 37000
Route TURBU Y107 TOBSO DCT BAKOR DCT PIDAD DCT TALEP DCT RARQU DCT BALEN UT250 RIXOT
Aircraft A320/M-SDE2E3FGIJ1LORWXYZ/HB1

Departure

Time 2026-05-06 06:22
Airport Munich Airport (EDDM)

Arrival

Time 2026-05-06 08:21
Airport Palma de Mallorca Airport (LEPA)
Time Latitude Longitude Altitude Speed Heading
2026-05-06 05:38 48.35073 11.80820 1480 ft 0 kts 173°
2026-05-06 06:15 48.35074 11.80819 1485 ft 1 kts 173°
2026-05-06 06:15 48.35098 11.80815 1475 ft 4 kts 173°
2026-05-06 06:15 48.35125 11.80811 1474 ft 3 kts 173°
2026-05-06 06:15 48.35146 11.80809 1472 ft 4 kts 198°
2026-05-06 06:16 48.35163 11.80830 1478 ft 4 kts 255°
2026-05-06 06:16 48.35167 11.80865 1474 ft 2 kts 263°
2026-05-06 06:16 48.35167 11.80867 1474 ft 0 kts 263°
2026-05-06 06:18 48.35166 11.80848 1471 ft 6 kts 263°
2026-05-06 06:18 48.35157 11.80741 1485 ft 12 kts 263°
2026-05-06 06:18 48.35148 11.80621 1485 ft 12 kts 263°
2026-05-06 06:19 48.35137 11.80480 1485 ft 15 kts 263°
2026-05-06 06:19 48.35120 11.80307 1478 ft 18 kts 258°
2026-05-06 06:19 48.35103 11.80117 1485 ft 19 kts 263°
2026-05-06 06:19 48.35088 11.79912 1479 ft 20 kts 264°
2026-05-06 06:20 48.35060 11.79699 1474 ft 21 kts 232°
2026-05-06 06:20 48.34926 11.79683 1475 ft 21 kts 174°
2026-05-06 06:20 48.34808 11.79773 1480 ft 20 kts 96°
2026-05-06 06:20 48.34824 11.79985 1485 ft 21 kts 83°
2026-05-06 06:21 48.34795 11.80196 1479 ft 22 kts 133°
2026-05-06 06:21 48.34649 11.80257 1485 ft 23 kts 174°
2026-05-06 06:21 48.34491 11.80252 1480 ft 23 kts 214°
2026-05-06 06:21 48.34447 11.80028 1482 ft 24 kts 263°
2026-05-06 06:22 48.34418 11.79644 1485 ft 64 kts 264°
2026-05-06 06:22 48.34341 11.78641 1486 ft 126 kts 263°
2026-05-06 06:22 48.34218 11.77073 1505 ft 172 kts 264°
2026-05-06 06:22 48.34076 11.75264 2122 ft 174 kts 264°
2026-05-06 06:23 48.33942 11.73453 2885 ft 177 kts 263°
2026-05-06 06:23 48.33500 11.71660 3242 ft 197 kts 228°
2026-05-06 06:23 48.32229 11.70696 3564 ft 218 kts 191°
2026-05-06 06:23 48.30716 11.70498 4127 ft 224 kts 182°
2026-05-06 06:24 48.29137 11.70649 4901 ft 227 kts 165°
2026-05-06 06:24 48.27682 11.71648 5572 ft 237 kts 151°
2026-05-06 06:24 48.26150 11.72800 6049 ft 257 kts 156°
2026-05-06 06:24 48.24485 11.73865 6729 ft 267 kts 158°
2026-05-06 06:25 48.22754 11.74919 7567 ft 271 kts 159°
2026-05-06 06:25 48.21001 11.75988 8451 ft 274 kts 159°
2026-05-06 06:25 48.17426 11.78206 10123 ft 284 kts 159°
2026-05-06 06:26 48.15530 11.79399 10419 ft 307 kts 159°
2026-05-06 06:26 48.13493 11.80692 10714 ft 327 kts 159°
2026-05-06 06:26 48.11374 11.82049 11356 ft 334 kts 159°
2026-05-06 06:26 48.09223 11.83436 12088 ft 339 kts 159°
2026-05-06 06:27 48.07046 11.84842 12840 ft 343 kts 159°
2026-05-06 06:27 48.04848 11.86259 13580 ft 346 kts 160°
2026-05-06 06:27 48.02625 11.87690 14240 ft 350 kts 160°
2026-05-06 06:27 48.00381 11.89132 14899 ft 353 kts 160°
2026-05-06 06:28 47.98110 11.90581 15548 ft 356 kts 160°
2026-05-06 06:28 47.95820 11.92041 16196 ft 360 kts 160°
2026-05-06 06:28 47.93502 11.93498 16824 ft 362 kts 163°
2026-05-06 06:28 47.91080 11.94511 17406 ft 362 kts 173°
2026-05-06 06:29 47.88578 11.94831 18010 ft 361 kts 184°
2026-05-06 06:29 47.86051 11.94771 18558 ft 364 kts 184°
2026-05-06 06:29 47.83508 11.94707 19118 ft 366 kts 185°
2026-05-06 06:29 47.80954 11.94650 19688 ft 368 kts 185°
2026-05-06 06:30 47.78396 11.94602 20285 ft 368 kts 185°
2026-05-06 06:30 47.75865 11.94560 20863 ft 369 kts 185°
2026-05-06 06:30 47.73262 11.94513 21456 ft 370 kts 185°
2026-05-06 06:30 47.70685 11.94464 22000 ft 371 kts 185°
2026-05-06 06:31 47.68097 11.94417 22536 ft 372 kts 185°
2026-05-06 06:31 47.65506 11.94374 23044 ft 373 kts 185°
2026-05-06 06:31 47.62934 11.94331 23531 ft 375 kts 185°
2026-05-06 06:31 47.60319 11.94288 23969 ft 377 kts 185°
2026-05-06 06:32 47.57693 11.94246 24400 ft 378 kts 185°
2026-05-06 06:32 47.55058 11.94203 24821 ft 380 kts 185°
2026-05-06 06:32 47.52409 11.94159 25248 ft 382 kts 185°
2026-05-06 06:32 47.49749 11.94113 25681 ft 383 kts 185°
2026-05-06 06:33 47.47074 11.94064 26086 ft 385 kts 186°
2026-05-06 06:33 47.44389 11.94010 26481 ft 386 kts 186°
2026-05-06 06:33 47.41719 11.93716 26841 ft 384 kts 192°
2026-05-06 06:33 47.39063 11.93176 27232 ft 386 kts 192°
2026-05-06 06:34 47.36395 11.92644 27606 ft 388 kts 192°
2026-05-06 06:34 47.33714 11.92111 27973 ft 390 kts 192°
2026-05-06 06:34 47.31013 11.91574 28335 ft 393 kts 192°
2026-05-06 06:34 47.28294 11.91031 28702 ft 394 kts 192°
2026-05-06 06:35 47.25570 11.90487 29084 ft 396 kts 192°
2026-05-06 06:35 47.22833 11.89943 29439 ft 398 kts 192°
2026-05-06 06:35 47.20080 11.89404 29795 ft 399 kts 192°
2026-05-06 06:35 47.17323 11.88869 30080 ft 401 kts 192°
2026-05-06 06:36 47.14541 11.88323 30271 ft 404 kts 192°
2026-05-06 06:36 47.11745 11.87775 30462 ft 407 kts 192°
2026-05-06 06:36 47.08934 11.87220 30731 ft 408 kts 191°
2026-05-06 06:36 47.06124 11.86663 31111 ft 407 kts 192°
2026-05-06 06:37 47.03329 11.86116 31579 ft 404 kts 191°
2026-05-06 06:37 47.00592 11.85547 32014 ft 401 kts 194°
2026-05-06 06:37 46.97852 11.84807 32387 ft 399 kts 196°
2026-05-06 06:37 46.95145 11.83940 32733 ft 398 kts 197°
2026-05-06 06:38 46.92454 11.83011 33069 ft 397 kts 198°
2026-05-06 06:38 46.89770 11.82070 33438 ft 396 kts 198°
2026-05-06 06:38 46.87082 11.81149 33876 ft 395 kts 198°
2026-05-06 06:38 46.84405 11.80261 34230 ft 394 kts 197°
2026-05-06 06:39 46.81720 11.79396 34541 ft 395 kts 197°
2026-05-06 06:39 46.79034 11.78545 34787 ft 395 kts 197°
2026-05-06 06:39 46.76341 11.77702 34976 ft 397 kts 196°
2026-05-06 06:39 46.73639 11.76856 35218 ft 398 kts 196°
2026-05-06 06:40 46.70930 11.76010 35411 ft 399 kts 196°
2026-05-06 06:40 46.68216 11.75161 35635 ft 399 kts 196°
2026-05-06 06:40 46.65495 11.74306 35866 ft 400 kts 196°
2026-05-06 06:40 46.62790 11.73361 36085 ft 398 kts 201°
2026-05-06 06:41 46.60242 11.71828 36265 ft 396 kts 211°
2026-05-06 06:41 46.57933 11.69671 36450 ft 394 kts 218°
2026-05-06 06:41 46.55735 11.67275 36643 ft 394 kts 218°
2026-05-06 06:41 46.53535 11.64894 36791 ft 395 kts 218°
2026-05-06 06:42 46.51350 11.62543 36921 ft 397 kts 218°
2026-05-06 06:42 46.46902 11.57773 36946 ft 398 kts 218°
2026-05-06 06:43 46.42451 11.53002 36946 ft 398 kts 218°
2026-05-06 06:43 46.37994 11.48228 36939 ft 397 kts 218°
2026-05-06 06:44 46.33559 11.43484 36945 ft 396 kts 218°
2026-05-06 06:44 46.29131 11.38758 36946 ft 395 kts 218°
2026-05-06 06:45 46.24704 11.34046 36952 ft 395 kts 218°
2026-05-06 06:45 46.20271 11.29341 36956 ft 395 kts 218°
2026-05-06 06:46 46.15829 11.24641 36986 ft 395 kts 218°
2026-05-06 06:46 46.12140 11.20742 36982 ft 395 kts 218°
2026-05-06 06:47 46.07704 11.16048 36992 ft 396 kts 218°
2026-05-06 06:47 46.03256 11.11343 36967 ft 397 kts 218°
2026-05-06 06:48 45.98792 11.06642 36971 ft 397 kts 218°
2026-05-06 06:48 45.94360 11.01999 36971 ft 396 kts 218°
2026-05-06 06:49 45.89900 10.97339 36970 ft 396 kts 218°
2026-05-06 06:49 45.85447 10.92680 36971 ft 396 kts 218°
2026-05-06 06:50 45.81007 10.88040 36971 ft 394 kts 218°
2026-05-06 06:50 45.76572 10.83412 36973 ft 394 kts 218°
2026-05-06 06:51 45.72138 10.78807 36965 ft 393 kts 218°
2026-05-06 06:51 45.67710 10.74216 36959 ft 393 kts 218°
2026-05-06 06:52 45.63280 10.69628 36955 ft 392 kts 217°
2026-05-06 06:52 45.58887 10.65096 36953 ft 391 kts 217°
2026-05-06 06:53 45.54475 10.60547 36946 ft 391 kts 217°
2026-05-06 06:53 45.50064 10.56008 36939 ft 391 kts 217°
2026-05-06 06:54 45.45654 10.51471 36960 ft 390 kts 217°
2026-05-06 06:54 45.41256 10.46965 36951 ft 389 kts 217°
2026-05-06 06:55 45.36869 10.42486 36947 ft 388 kts 217°
2026-05-06 06:55 45.32484 10.38021 36943 ft 387 kts 217°
2026-05-06 06:56 45.28111 10.33563 36911 ft 386 kts 218°
2026-05-06 06:56 45.23743 10.29114 36919 ft 386 kts 218°
2026-05-06 06:57 45.19381 10.24679 36931 ft 386 kts 218°
2026-05-06 06:57 45.15013 10.20249 36928 ft 386 kts 218°
2026-05-06 06:58 45.10648 10.15836 36908 ft 385 kts 217°
2026-05-06 06:58 45.06289 10.11438 36906 ft 385 kts 218°
2026-05-06 06:59 45.01927 10.07053 36909 ft 385 kts 217°
2026-05-06 06:59 44.97555 10.02674 36910 ft 385 kts 217°
2026-05-06 07:00 44.93206 9.98327 36892 ft 385 kts 217°
2026-05-06 07:00 44.88843 9.93965 36918 ft 384 kts 217°
2026-05-06 07:01 44.84494 9.89610 36914 ft 383 kts 217°
2026-05-06 07:01 44.80149 9.85248 36907 ft 383 kts 217°
2026-05-06 07:02 44.75804 9.80907 36890 ft 383 kts 217°
2026-05-06 07:02 44.71450 9.76584 36888 ft 383 kts 217°
2026-05-06 07:03 44.67093 9.72261 36904 ft 383 kts 217°
2026-05-06 07:03 44.62770 9.67982 36893 ft 383 kts 217°
2026-05-06 07:04 44.58417 9.63675 36876 ft 383 kts 217°
2026-05-06 07:04 44.53943 9.59618 36892 ft 384 kts 213°
2026-05-06 07:05 44.49321 9.55841 36886 ft 384 kts 213°
2026-05-06 07:05 44.44711 9.52092 36883 ft 383 kts 213°
2026-05-06 07:06 44.40127 9.48281 36890 ft 383 kts 213°
2026-05-06 07:06 44.35559 9.44453 36920 ft 383 kts 213°
2026-05-06 07:07 44.31016 9.40663 36900 ft 382 kts 213°
2026-05-06 07:07 44.26452 9.36862 36897 ft 382 kts 213°
2026-05-06 07:08 44.21888 9.33069 36875 ft 382 kts 213°
2026-05-06 07:08 44.17325 9.29287 36883 ft 382 kts 213°
2026-05-06 07:09 44.12749 9.25508 36884 ft 382 kts 213°
2026-05-06 07:09 44.08180 9.21726 36887 ft 382 kts 213°
2026-05-06 07:10 44.03609 9.17951 36865 ft 382 kts 213°
2026-05-06 07:10 43.99032 9.14183 36873 ft 382 kts 213°
2026-05-06 07:11 43.94457 9.10435 36881 ft 382 kts 213°
2026-05-06 07:11 43.89912 9.06714 36888 ft 382 kts 212°
2026-05-06 07:12 43.85323 9.02961 36846 ft 383 kts 212°
2026-05-06 07:12 43.80725 8.99206 36854 ft 384 kts 212°
2026-05-06 07:13 43.76115 8.95446 36857 ft 385 kts 212°
2026-05-06 07:13 43.71496 8.91694 36864 ft 385 kts 212°
2026-05-06 07:14 43.66862 8.87931 36851 ft 386 kts 212°
2026-05-06 07:14 43.62239 8.84172 36862 ft 386 kts 212°
2026-05-06 07:15 43.57606 8.80421 36870 ft 386 kts 212°
2026-05-06 07:15 43.52970 8.76674 36880 ft 386 kts 212°
2026-05-06 07:16 43.48334 8.72925 36859 ft 386 kts 212°
2026-05-06 07:16 43.44079 8.68570 36891 ft 384 kts 223°
2026-05-06 07:17 43.40107 8.63634 36892 ft 385 kts 222°
2026-05-06 07:17 43.36122 8.58699 36890 ft 385 kts 222°
2026-05-06 07:18 43.32131 8.53779 36892 ft 385 kts 222°
2026-05-06 07:18 43.28131 8.48866 36876 ft 386 kts 222°
2026-05-06 07:19 43.24133 8.43953 36883 ft 386 kts 222°
2026-05-06 07:19 43.20138 8.39040 36893 ft 386 kts 222°
2026-05-06 07:20 43.16137 8.34134 36928 ft 386 kts 222°
2026-05-06 07:20 43.12149 8.29261 36895 ft 386 kts 222°
2026-05-06 07:21 43.08136 8.24368 36895 ft 386 kts 222°
2026-05-06 07:21 43.04122 8.19484 36898 ft 386 kts 222°
2026-05-06 07:22 43.00107 8.14605 36902 ft 386 kts 222°
2026-05-06 07:22 42.96086 8.09738 36903 ft 386 kts 222°
2026-05-06 07:23 42.92062 8.04861 36890 ft 386 kts 222°
2026-05-06 07:23 42.88043 7.99989 36896 ft 387 kts 222°
2026-05-06 07:24 42.84016 7.95123 36925 ft 387 kts 222°
2026-05-06 07:24 42.79983 7.90267 36918 ft 387 kts 222°
2026-05-06 07:25 42.75965 7.85446 36916 ft 387 kts 222°
2026-05-06 07:25 42.71923 7.80598 36896 ft 387 kts 222°
2026-05-06 07:26 42.67884 7.75733 36906 ft 387 kts 222°
2026-05-06 07:26 42.63837 7.70874 36906 ft 388 kts 222°
2026-05-06 07:27 42.59815 7.66070 36911 ft 388 kts 222°
2026-05-06 07:27 42.55761 7.61242 36913 ft 388 kts 222°
2026-05-06 07:28 42.51700 7.56418 36949 ft 388 kts 222°
2026-05-06 07:28 42.45610 7.49187 36936 ft 388 kts 222°
2026-05-06 07:29 42.41550 7.44369 36937 ft 388 kts 222°
2026-05-06 07:29 42.37521 7.39596 36902 ft 388 kts 222°
2026-05-06 07:30 42.33455 7.34795 36909 ft 388 kts 222°
2026-05-06 07:30 42.29389 7.30006 36917 ft 388 kts 222°
2026-05-06 07:31 42.25321 7.25218 36925 ft 388 kts 222°
2026-05-06 07:31 42.21240 7.20432 36930 ft 388 kts 222°
2026-05-06 07:32 42.17161 7.15649 36920 ft 388 kts 222°
2026-05-06 07:32 42.13085 7.10873 36929 ft 388 kts 222°
2026-05-06 07:33 42.09002 7.06101 36929 ft 389 kts 222°
2026-05-06 07:33 42.04917 7.01340 36938 ft 389 kts 222°
2026-05-06 07:34 42.01518 6.97385 36939 ft 389 kts 223°
2026-05-06 07:34 41.96855 6.91715 36921 ft 389 kts 224°
2026-05-06 07:35 41.92875 6.86775 36925 ft 390 kts 224°
2026-05-06 07:35 41.88882 6.81851 36958 ft 390 kts 224°
2026-05-06 07:36 41.85545 6.77777 36958 ft 390 kts 223°
2026-05-06 07:36 41.81522 6.72898 36958 ft 390 kts 223°
2026-05-06 07:37 41.77513 6.68014 36939 ft 389 kts 224°
2026-05-06 07:37 41.73497 6.63131 36940 ft 390 kts 224°
2026-05-06 07:38 41.69474 6.58255 36945 ft 390 kts 224°
2026-05-06 07:38 41.65444 6.53377 36945 ft 390 kts 224°
2026-05-06 07:39 41.61415 6.48500 36950 ft 391 kts 224°
2026-05-06 07:39 41.57386 6.43629 36962 ft 390 kts 223°
2026-05-06 07:40 41.53350 6.38766 36965 ft 390 kts 224°
2026-05-06 07:40 41.49344 6.33947 36967 ft 390 kts 223°
2026-05-06 07:41 41.45310 6.29105 36966 ft 390 kts 223°
2026-05-06 07:41 41.41269 6.24271 36966 ft 390 kts 223°
2026-05-06 07:42 41.37228 6.19446 36933 ft 390 kts 223°
2026-05-06 07:42 41.33181 6.14609 36943 ft 391 kts 223°
2026-05-06 07:43 41.29128 6.09771 36946 ft 392 kts 223°
2026-05-06 07:43 41.25067 6.04942 36978 ft 392 kts 223°
2026-05-06 07:44 41.21009 6.00123 36977 ft 391 kts 223°
2026-05-06 07:44 41.16950 5.95309 36944 ft 391 kts 223°
2026-05-06 07:45 41.12882 5.90496 36938 ft 392 kts 223°
2026-05-06 07:45 41.08828 5.85707 36947 ft 393 kts 223°
2026-05-06 07:46 41.04745 5.80874 36954 ft 393 kts 224°
2026-05-06 07:46 41.00659 5.76056 36958 ft 394 kts 223°
2026-05-06 07:47 40.96551 5.71244 36943 ft 394 kts 223°
2026-05-06 07:47 40.92958 5.65830 36965 ft 392 kts 235°
2026-05-06 07:48 40.89820 5.59936 36970 ft 392 kts 235°
2026-05-06 07:48 40.86662 5.54053 36626 ft 392 kts 235°
2026-05-06 07:49 40.85084 5.51118 36362 ft 392 kts 235°
2026-05-06 07:49 40.83509 5.48189 36104 ft 391 kts 235°
2026-05-06 07:49 40.81931 5.45255 35851 ft 391 kts 235°
2026-05-06 07:49 40.80354 5.42329 35596 ft 391 kts 234°
2026-05-06 07:50 40.78777 5.39402 35347 ft 391 kts 234°
2026-05-06 07:50 40.77219 5.36512 35073 ft 392 kts 234°
2026-05-06 07:50 40.75631 5.33572 34820 ft 394 kts 234°
2026-05-06 07:50 40.74045 5.30639 34624 ft 392 kts 234°
2026-05-06 07:51 40.72456 5.27709 34363 ft 391 kts 234°
2026-05-06 07:51 40.70879 5.24801 33707 ft 390 kts 234°
2026-05-06 07:51 40.69301 5.21892 32869 ft 390 kts 234°
2026-05-06 07:51 40.67721 5.18980 32083 ft 391 kts 234°
2026-05-06 07:52 40.66154 5.16083 31483 ft 386 kts 234°
2026-05-06 07:52 40.64598 5.13214 30885 ft 382 kts 233°
2026-05-06 07:52 40.63061 5.10382 30309 ft 379 kts 233°
2026-05-06 07:52 40.61536 5.07571 29696 ft 375 kts 233°
2026-05-06 07:53 40.60023 5.04790 29049 ft 372 kts 233°
2026-05-06 07:53 40.58522 5.02039 28414 ft 369 kts 233°
2026-05-06 07:53 40.57030 4.99316 27788 ft 366 kts 233°
2026-05-06 07:53 40.55544 4.96608 27173 ft 363 kts 233°
2026-05-06 07:54 40.54074 4.93922 26591 ft 360 kts 234°
2026-05-06 07:54 40.52619 4.91257 26005 ft 357 kts 234°
2026-05-06 07:54 40.51175 4.88615 25428 ft 355 kts 234°
2026-05-06 07:54 40.49739 4.85994 24855 ft 352 kts 234°
2026-05-06 07:55 40.48311 4.83387 24287 ft 350 kts 234°
2026-05-06 07:55 40.46889 4.80800 23735 ft 348 kts 234°
2026-05-06 07:55 40.45476 4.78231 23142 ft 346 kts 234°
2026-05-06 07:55 40.44069 4.75677 22543 ft 344 kts 234°
2026-05-06 07:56 40.42693 4.73177 21982 ft 341 kts 234°
2026-05-06 07:56 40.41308 4.70659 21467 ft 338 kts 234°
2026-05-06 07:56 40.39935 4.68165 20950 ft 336 kts 234°
2026-05-06 07:56 40.38664 4.65613 20443 ft 333 kts 241°
2026-05-06 07:57 40.37552 4.62964 19906 ft 331 kts 241°
2026-05-06 07:57 40.36439 4.60318 19373 ft 330 kts 241°
2026-05-06 07:57 40.35327 4.57678 18890 ft 329 kts 241°
2026-05-06 07:57 40.34223 4.55067 18446 ft 326 kts 241°
2026-05-06 07:58 40.33139 4.52505 17982 ft 324 kts 241°
2026-05-06 07:58 40.32050 4.49935 17486 ft 322 kts 241°
2026-05-06 07:58 40.30952 4.47350 16998 ft 319 kts 241°
2026-05-06 07:58 40.29890 4.44851 16531 ft 317 kts 241°
2026-05-06 07:59 40.28820 4.42340 16076 ft 315 kts 241°
2026-05-06 07:59 40.27758 4.39848 15605 ft 313 kts 242°
2026-05-06 07:59 40.26703 4.37369 15163 ft 311 kts 242°
2026-05-06 07:59 40.25655 4.34904 14730 ft 308 kts 242°
2026-05-06 08:00 40.24615 4.32456 14298 ft 306 kts 242°
2026-05-06 08:00 40.23582 4.30022 13877 ft 305 kts 242°
2026-05-06 08:00 40.22554 4.27604 13440 ft 302 kts 242°
2026-05-06 08:00 40.21546 4.25247 13292 ft 291 kts 242°
2026-05-06 08:01 40.20576 4.22982 13157 ft 280 kts 242°
2026-05-06 08:01 40.19638 4.20792 12999 ft 272 kts 242°
2026-05-06 08:01 40.18722 4.18651 12700 ft 268 kts 242°
2026-05-06 08:01 40.17814 4.16526 12319 ft 267 kts 242°
2026-05-06 08:02 40.16906 4.14406 11939 ft 267 kts 242°
2026-05-06 08:02 40.15999 4.12289 11561 ft 267 kts 242°
2026-05-06 08:02 40.15091 4.10175 11190 ft 267 kts 242°
2026-05-06 08:02 40.14196 4.08086 10819 ft 266 kts 242°
2026-05-06 08:03 40.13293 4.05979 10460 ft 266 kts 242°
2026-05-06 08:03 40.12389 4.03870 10093 ft 265 kts 242°
2026-05-06 08:03 40.11487 4.01769 9700 ft 265 kts 242°
2026-05-06 08:03 40.10584 3.99671 9300 ft 264 kts 242°
2026-05-06 08:04 40.09685 3.97579 8907 ft 263 kts 242°
2026-05-06 08:04 40.08786 3.95499 8750 ft 264 kts 242°
2026-05-06 08:04 40.07883 3.93409 8602 ft 264 kts 242°
2026-05-06 08:04 40.06977 3.91317 8487 ft 264 kts 241°
2026-05-06 08:05 40.06072 3.89230 8372 ft 264 kts 241°
2026-05-06 08:05 40.05169 3.87143 8227 ft 264 kts 242°
2026-05-06 08:05 40.04270 3.85058 8109 ft 263 kts 241°
2026-05-06 08:05 40.03371 3.82976 7979 ft 263 kts 241°
2026-05-06 08:06 40.02470 3.80895 7854 ft 263 kts 241°
2026-05-06 08:06 40.01580 3.78846 7739 ft 263 kts 241°
2026-05-06 08:06 40.00666 3.76744 7602 ft 263 kts 241°
2026-05-06 08:06 39.99776 3.74697 7480 ft 263 kts 241°
2026-05-06 08:07 39.98875 3.72627 7353 ft 262 kts 241°
2026-05-06 08:07 39.97973 3.70558 7228 ft 262 kts 241°
2026-05-06 08:07 39.97075 3.68489 7101 ft 262 kts 241°
2026-05-06 08:07 39.96177 3.66420 6979 ft 262 kts 241°
2026-05-06 08:08 39.95276 3.64352 6854 ft 262 kts 241°
2026-05-06 08:08 39.94376 3.62285 6731 ft 262 kts 241°
2026-05-06 08:08 39.93478 3.60221 6611 ft 262 kts 241°
2026-05-06 08:08 39.92577 3.58156 6486 ft 262 kts 240°
2026-05-06 08:09 39.91678 3.56097 6371 ft 262 kts 240°
2026-05-06 08:09 39.90777 3.54040 6243 ft 261 kts 240°
2026-05-06 08:09 39.89880 3.51984 6113 ft 261 kts 240°
2026-05-06 08:09 39.88979 3.49923 5982 ft 261 kts 240°
2026-05-06 08:10 39.88080 3.47866 5863 ft 261 kts 240°
2026-05-06 08:10 39.87183 3.45811 5720 ft 261 kts 240°
2026-05-06 08:10 39.86289 3.43758 5603 ft 261 kts 240°
2026-05-06 08:10 39.85392 3.41703 5477 ft 261 kts 240°
2026-05-06 08:11 39.84495 3.39655 5346 ft 261 kts 240°
2026-05-06 08:11 39.83594 3.37605 5226 ft 261 kts 240°
2026-05-06 08:11 39.82695 3.35560 5107 ft 260 kts 240°
2026-05-06 08:11 39.81808 3.33542 4998 ft 260 kts 240°
2026-05-06 08:12 39.80909 3.31502 5003 ft 260 kts 240°
2026-05-06 08:12 39.79994 3.29432 5005 ft 261 kts 240°
2026-05-06 08:12 39.79102 3.27416 5006 ft 261 kts 240°
2026-05-06 08:12 39.78200 3.25371 5006 ft 261 kts 240°
2026-05-06 08:13 39.77298 3.23323 5006 ft 261 kts 240°
2026-05-06 08:13 39.76396 3.21277 5006 ft 261 kts 240°
2026-05-06 08:13 39.75492 3.19225 5000 ft 263 kts 240°
2026-05-06 08:13 39.74591 3.17151 5003 ft 264 kts 244°
2026-05-06 08:14 39.73842 3.14982 5001 ft 260 kts 241°
2026-05-06 08:14 39.72914 3.13065 5000 ft 241 kts 237°
2026-05-06 08:14 39.72041 3.11294 5002 ft 225 kts 238°
2026-05-06 08:14 39.71248 3.09612 5003 ft 212 kts 239°
2026-05-06 08:15 39.70507 3.08027 5004 ft 199 kts 239°
2026-05-06 08:15 39.69810 3.06534 5030 ft 191 kts 239°
2026-05-06 08:15 39.69124 3.05067 4986 ft 190 kts 239°
2026-05-06 08:15 39.68439 3.03605 4811 ft 189 kts 239°
2026-05-06 08:16 39.67758 3.02151 4580 ft 188 kts 239°
2026-05-06 08:16 39.67080 3.00702 4328 ft 188 kts 239°
2026-05-06 08:16 39.66402 2.99256 4077 ft 187 kts 239°
2026-05-06 08:16 39.65726 2.97813 3827 ft 187 kts 238°
2026-05-06 08:17 39.65047 2.96367 3574 ft 188 kts 238°
2026-05-06 08:17 39.64364 2.94911 3329 ft 189 kts 238°
2026-05-06 08:17 39.63677 2.93447 3075 ft 190 kts 238°
2026-05-06 08:17 39.62995 2.91995 2818 ft 190 kts 238°
2026-05-06 08:18 39.62307 2.90531 2569 ft 190 kts 238°
2026-05-06 08:18 39.61615 2.89060 2324 ft 191 kts 238°
2026-05-06 08:18 39.60930 2.87604 2053 ft 185 kts 238°
2026-05-06 08:18 39.60284 2.86232 1826 ft 172 kts 238°
2026-05-06 08:19 39.59693 2.84975 1599 ft 156 kts 238°
2026-05-06 08:19 39.59146 2.83814 1401 ft 148 kts 238°
2026-05-06 08:19 39.58616 2.82689 1200 ft 145 kts 238°
2026-05-06 08:19 39.58090 2.81576 1005 ft 145 kts 238°
2026-05-06 08:20 39.57568 2.80467 800 ft 143 kts 238°
2026-05-06 08:20 39.57051 2.79370 617 ft 142 kts 238°
2026-05-06 08:20 39.56537 2.78276 442 ft 143 kts 239°
2026-05-06 08:20 39.56018 2.77176 262 ft 143 kts 239°
2026-05-06 08:21 39.55501 2.76082 83 ft 142 kts 239°
2026-05-06 08:21 39.55021 2.75057 38 ft 115 kts 238°
2026-05-06 08:21 39.54691 2.74367 38 ft 64 kts 238°
2026-05-06 08:21 39.54560 2.74060 38 ft 22 kts 257°
2026-05-06 08:22 39.54550 2.73868 38 ft 12 kts 270°
2026-05-06 08:22 39.54551 2.73775 38 ft 10 kts 270°
2026-05-06 08:22 39.54559 2.73691 38 ft 9 kts 291°
2026-05-06 08:22 39.54597 2.73635 38 ft 8 kts 316°
2026-05-06 08:23 39.54623 2.73576 36 ft 7 kts 291°
2026-05-06 08:23 39.54652 2.73532 38 ft 6 kts 328°
2026-05-06 08:23 39.54685 2.73506 38 ft 5 kts 329°
2026-05-06 08:23 39.54727 2.73474 38 ft 8 kts 329°
2026-05-06 08:24 39.54770 2.73441 37 ft 7 kts 329°
2026-05-06 08:24 39.54792 2.73416 38 ft 6 kts 306°
2026-05-06 08:24 39.54795 2.73353 38 ft 5 kts 264°
2026-05-06 08:24 39.54794 2.73335 38 ft 0 kts 265°